Tracking 25723 objects as of 27-Jun-2022
HD Live streaming from Space Station
objects crossing your sky now

DELTA 1 DEB

Track DELTA 1 DEB now!
10-day predictions


NORAD ID: 12265
Int'l Code: 1978-026DJ
Perigee: 736.4 km
Apogee: 938.4 km
Inclination: 98.8 °
Period: 101.5 minutes
Semi major axis: 7208 km
RCS: 0.051 m2 (small)
Launch date: March 5, 1978
Source: United States (US)
Launch site: AIR FORCE WESTERN TEST RANGE (AFWTR)

Note: This is SATELLITE DEBRIS
aabbcc
Your satellite tracking list
Your tracking list is empty




NASA's NSSDC Master Catalog

Two Line Element Set (TLE):
1 12265U 78026DJ  22177.67006477  .00000916  00000-0  42126-3 0  9999
2 12265  98.7576 327.7250 0140091 352.1889  20.8786 14.18542826106129
Source of the keplerian elements: AFSPC